Location: Adelaide
(34.9285°S, 138.6007°E)
Time: 22:11:52
(UTC+10:30)

Envisat - Pass Details

Date: 22 November 2019
Orbit: 764 x 766 km, 98.1° (Epoch: 12 December)

Event Time Altitude Azimuth Distance (km) Brightness Sun altitude
Rises 20:30:04 0° 175° (S) 3,268 6.6 -5.3°
Reaches altitude 10° 20:32:27 10° 180° (S) 2,334 5.9 -5.8°
Maximum altitude 20:37:23 49° 253° (WSW) 993 4.2 -6.6°
Drops below altitude 10° 20:42:17 10° 327° (NNW) 2,306 5.5 -7.5°
Sets 20:44:38 0° 332° (NNW) 3,224 6.2 -7.9°
